Temperature
4 3 3 3 4 4 4 4 4 5 6 6 5 5 5 5 5 5 4 5 5 5 6 6 7 7 8 8 9 9 9 9 9 10 10 10 10 11 11 11 11 11 11 11
2 2 4 4 4 4 4 4 3 4 6 6 5 4 4 4 4 3 3 3 3 4 5 5 6 7 7 7 8 8 9 9 9 9 9 9 10 10 10 10 10 10 11 11
2 3 4 4 4 4 3 3 3 4 4 5 4 3 3 3 3 2 2 2 2 2 3 4 5 5 6 7 7 7 8 8 8 9 9 9 9 9 9 10 10 10 10 10
2 3 4 3 3 3 3 4 4 4 3 2 3 2 2 2 1 1 1 1 1 1 2 3 4 4 5 6 6 7 7 7 8 8 8 9 9 9 9 9 9 9 10 10
2 2 3 3 3 3 3 3 3 3 2 2 2 2 1 0 0 0 0 0 0 0 1 2 3 4 4 5 5 6 6 7 7 7 8 8 8 8 9 9 9 9 9 9
2 3 3 2 3 3 3 2 2 1 1 1 1 1 0 -1 -0 -1 -0 -0 -0 -1 0 1 2 3 3 4 5 5 6 6 6 7 7 7 8 8 8 8 8 8 9 9
1 2 2 2 2 2 1 0 0 0 0 1 1 1 -1 -1 -1 -1 -1 -1 -1 -1 -1 -0 1 2 2 3 4 4 5 6 6 6 6 6 7 7 7 7 8 8 8 8
-1 -0 1 1 1 1 1 0 -0 -0 -0 -0 0 -0 -2 -2 -1 -1 -1 -1 -2 -2 -1 -1 -0 0 1 2 3 4 4 4 5 5 5 6 6 6 7 7 7 7 8 8
-2 -1 1 1 1 1 0 -0 -0 -1 -1 -1 -1 -2 -2 -1 -2 -2 -2 -2 -2 -2 -2 -2 -1 -0 1 1 2 3 3 4 4 4 5 5 5 6 6 6 6 7 7 7
-2 -2 -1 0 1 1 0 -1 -2 -2 -1 -1 -1 -2 -2 -3 -3 -3 -3 -3 -3 -3 -3 -2 -2 -1 -0 0 1 2 3 3 3 4 4 4 5 5 5 6 6 6 7 7
-2 -3 -2 -1 -1 -1 -1 -1 -2 -2 -2 -2 -1 -2 -3 -3 -3 -3 -3 -3 -3 -3 -3 -3 -3 -2 -1 -0 0 1 2 2 3 3 3 4 4 4 4 5 5 6 6 6
-3 -4 -3 -3 -2 -1 -2 -2 -3 -3 -3 -3 -3 -3 -3 -4 -3 -3 -4 -4 -4 -4 -4 -4 -3 -2 -2 -1 -1 -0 1 1 2 3 3 3 3 4 4 4 5 5 5 6
-3 -4 -4 -3 -2 -3 -3 -3 -3 -4 -4 -4 -3 -3 -3 -4 -4 -4 -4 -4 -4 -4 -4 -4 -4 -3 -2 -2 -2 -1 -0 1 1 2 2 3 3 3 3 4 4 5 5 5
-2 -5 -5 -4 -3 -4 -4 -4 -4 -4 -4 -4 -4 -4 -4 -4 -5 -5 -5 -5 -5 -5 -5 -5 -4 -4 -3 -3 -2 -2 -1 -0 0 1 1 2 2 3 3 3 4 4 4 5
-4 -5 -5 -5 -4 -4 -4 -4 -4 -4 -5 -5 -5 -5 -5 -5 -5 -5 -5 -5 -6 -6 -5 -5 -5 -5 -4 -3 -3 -2 -1 -1 -0 0 1 1 2 2 2 3 3 3 4 4
-5 -5 -5 -5 -4 -4 -4 -5 -5 -5 -5 -5 -5 -5 -6 -6 -6 -6 -6 -6 -6 -6 -6 -6 -6 -5 -5 -4 -4 -3 -2 -2 -1 -1 -0 1 1 2 2 2 3 3 3 4
-6 -6 -6 -6 -5 -5 -6 -6 -6 -6 -6 -6 -6 -6 -7 -7 -6 -6 -6 -7 -7 -7 -7 -7 -6 -6 -5 -5 -4 -4 -3 -2 -2 -1 -1 -0 0 1 1 2 2 3 3 3
-6 -6 -7 -6 -6 -6 -6 -6 -6 -6 -7 -7 -7 -7 -7 -7 -7 -6 -6 -7 -7 -7 -7 -7 -7 -6 -6 -5 -5 -4 -3 -3 -2 -2 -1 -1 -0 0 1 1 2 2 2 2
-6 -6 -7 -7 -7 -7 -6 -6 -7 -7 -7 -8 -8 -8 -7 -7 -7 -7 -7 -7 -7 -7 -7 -7 -7 -7 -6 -5 -5 -4 -4 -3 -3 -2 -2 -1 -1 -0 0 1 1 1 2 2
-6 -7 -7 -7 -7 -7 -7 -7 -7 -7 -8 -8 -8 -8 -8 -8 -8 -8 -7 -8 -7 -7 -7 -7 -7 -7 -6 -6 -6 -5 -4 -4 -4 -3 -2 -2 -1 -1 -0 0 1 1 1 1
-7 -8 -8 -8 -8 -8 -8 -8 -7 -7 -8 -8 -9 -9 -9 -9 -9 -8 -8 -8 -8 -8 -8 -8 -7 -7 -7 -6 -6 -6 -5 -5 -4 -4 -3 -2 -2 -1 -1 -0 -0 0 0 0
-8 -9 -9 -9 -9 -8 -8 -8 -9 -9 -8 -9 -9 -9 -9 -9 -9 -9 -8 -8 -8 -8 -8 -8 -8 -7 -7 -7 -7 -6 -6 -5 -5 -4 -3 -3 -2 -2 -1 -1 -1 -0 -0 -0
-9 -9 -9 -9 -8 -8 -8 -8 -8 -8 -9 -9 -9 -9 -9 -10 -9 -9 -9 -9 -9 -9 -9 -8 -8 -8 -7 -7 -7 -7 -6 -6 -5 -5 -4 -3 -3 -2 -2 -2 -1 -1 -1 -1
-10 -10 -10 -10 -9 -9 -8 -8 -9 -9 -9 -9 -10 -10 -10 -10 -10 -10 -10 -9 -9 -9 -9 -9 -9 -8 -8 -8 -8 -7 -7 -6 -5 -5 -4 -4 -4 -3 -3 -2 -2 -2 -2 -1
-10 -11 -10 -10 -10 -9 -9 -9 -9 -9 -10 -10 -10 -10 -10 -10 -10 -10 -10 -10 -10 -10 -9 -9 -9 -9 -9 -8 -8 -8 -7 -6 -6 -5 -5 -4 -4 -4 -4 -3 -3 -3 -2 -2
-11 -11 -11 -10 -10 -10 -10 -9 -10 -10 -10 -10 -10 -10 -10 -10 -10 -10 -10 -10 -10 -10 -10 -10 -9 -9 -9 -9 -8 -8 -7 -7 -7 -6 -6 -5 -5 -5 -5 -4 -4 -4 -3 -3
Wind_Speed
2 4 0 4 5 4 3 4 5 6 4 2 4 3 3 2 3 3 4 4 4 4 5 5 4 3 2 2 1 1 1 1 2 2 3 4 4 3 2 3 6 7 8 10
3 2 5 3 2 2 2 3 4 5 4 3 2 3 3 2 3 3 4 5 6 7 8 7 5 4 3 2 1 0 1 1 2 2 2 3 3 3 2 2 4 6 7 8
3 3 3 1 2 3 3 4 5 6 5 3 0 3 2 2 4 6 7 7 8 8 7 7 6 4 3 3 2 1 1 1 1 1 2 2 2 2 2 2 2 3 6 7
1 4 4 3 2 2 5 5 5 5 2 3 2 3 3 2 5 7 8 8 8 9 9 7 6 5 4 3 3 2 1 1 1 2 3 4 4 4 3 3 2 2 4 5
3 2 3 2 4 2 5 6 6 5 3 2 1 3 4 4 4 6 7 7 8 9 9 8 7 5 5 4 3 2 2 0 1 2 3 3 3 2 2 3 3 2 2 3
2 2 1 2 3 2 3 2 2 1 2 3 4 5 2 1 2 5 6 7 7 8 9 9 8 7 7 6 4 4 2 1 1 1 2 3 3 3 4 4 4 3 2 2
5 4 3 3 3 4 5 4 2 2 1 4 2 3 1 2 3 3 5 7 7 7 8 9 10 9 8 7 6 4 3 2 1 1 2 2 3 4 5 5 5 4 3 3
2 5 3 4 1 1 1 3 3 3 4 3 1 3 2 2 4 4 5 6 7 8 8 8 8 8 7 7 7 5 3 2 2 1 1 2 2 3 3 4 4 5 4 4
1 4 4 4 2 1 0 1 2 2 1 2 2 1 2 5 8 8 7 8 8 8 8 8 9 9 9 8 7 7 3 2 2 2 2 1 2 2 3 3 3 4 3 3
2 4 5 4 3 3 1 2 3 2 2 3 3 2 2 5 8 8 8 8 8 9 9 8 8 9 9 8 7 7 5 3 2 2 2 2 2 3 3 4 4 4 4 4
1 1 4 3 1 1 2 2 1 2 2 2 3 3 1 2 4 6 7 7 7 8 8 8 8 8 8 8 8 7 7 5 4 3 2 2 2 2 3 3 4 4 4 4
0 1 3 4 3 1 2 1 2 2 2 2 2 3 2 1 4 6 7 8 7 7 7 7 8 8 8 9 8 8 7 6 5 4 3 2 2 2 3 3 4 4 5 5
1 2 2 5 3 4 3 2 0 2 1 2 3 4 1 5 8 8 8 9 8 8 9 8 8 9 9 9 9 9 8 7 7 5 3 2 2 2 3 3 3 4 5 5
2 2 4 5 4 2 4 5 2 2 2 2 4 5 4 7 8 9 9 8 8 8 9 9 9 9 10 10 9 9 9 8 7 6 4 3 2 3 3 3 3 3 4 5
3 1 2 3 4 2 3 5 3 2 3 4 4 4 5 6 6 7 7 8 9 10 11 11 10 10 10 11 10 10 9 9 7 6 5 3 3 2 2 3 3 3 3 5
2 1 1 3 3 1 3 5 3 2 2 3 4 5 4 6 5 7 8 8 9 10 11 12 12 12 11 11 11 11 10 9 7 6 5 4 3 2 2 3 3 3 3 4
0 1 0 3 4 3 3 3 1 1 1 2 4 5 6 6 7 7 7 7 8 10 11 12 11 11 11 10 10 10 10 9 7 6 6 5 3 3 3 3 4 4 4 4
3 2 2 1 4 2 4 1 0 0 2 2 2 4 5 6 6 6 4 6 9 11 11 11 11 12 11 10 10 9 9 8 8 7 6 5 4 3 3 3 4 4 4 4
2 3 2 1 1 4 3 2 1 1 3 3 3 6 7 7 5 4 4 7 9 10 10 9 10 11 11 11 10 8 8 8 8 7 6 6 4 3 3 3 3 3 4 4
3 3 2 2 1 4 4 5 4 0 3 3 4 6 7 7 5 5 8 10 10 10 9 10 10 10 10 10 9 8 8 8 8 8 7 6 4 3 3 3 3 3 3 4
2 1 1 2 3 5 4 6 2 1 4 5 4 5 5 4 4 8 10 10 10 10 11 11 10 9 9 9 9 8 8 8 9 8 7 6 5 3 3 2 2 3 3 4
2 2 1 2 2 5 3 2 2 3 2 3 4 4 5 6 8 9 9 10 11 11 11 11 10 10 9 9 8 8 8 9 9 8 7 6 5 4 2 1 2 3 4 4
2 3 3 4 4 2 1 2 1 1 2 3 4 5 6 7 8 10 9 10 10 10 10 10 9 10 10 9 8 8 9 9 8 7 7 6 5 4 3 1 1 3 4 4
2 0 2 2 3 2 1 0 2 2 2 4 4 5 6 6 8 9 9 9 9 10 9 9 9 9 10 10 9 9 9 9 7 6 6 5 4 3 3 1 0 1 2 3
3 1 1 3 3 3 2 2 3 4 4 4 5 5 6 7 8 8 8 8 9 9 9 8 8 9 9 9 9 10 9 8 7 6 5 5 4 3 3 2 2 1 0 2
2 3 3 5 4 3 4 3 3 3 5 5 6 7 6 6 8 8 8 7 7 8 8 8 9 9 9 9 9 9 9 7 6 5 5 4 4 3 2 3 3 5 4 4
Wind_Direction
31 63 297 243 221 227 225 226 247 256 279 251 226 256 304 354 36 20 7 4 356 341 340 348 353 360 15 20 30 113 105 86 132 150 157 159 168 165 150 141 145 145 145 148
49 312 267 266 273 277 268 259 268 288 298 279 246 274 317 30 60 56 33 21 8 357 356 353 357 1 8 1 342 141 131 116 162 170 185 178 168 166 162 144 140 142 143 151
176 273 296 324 339 324 286 248 258 273 312 319 187 310 340 27 51 38 31 21 12 6 353 352 353 349 352 346 330 286 201 141 150 113 139 134 120 116 119 140 165 151 144 152
277 305 338 353 306 279 270 269 277 272 259 272 197 249 300 354 28 21 15 11 5 1 358 353 355 350 340 326 325 324 275 159 144 118 135 159 170 175 186 179 168 154 147 147
288 314 347 323 293 274 253 276 270 255 208 253 263 195 293 9 13 353 356 359 358 357 357 355 348 340 340 340 339 334 331 93 139 134 136 149 167 166 156 160 147 152 158 151
293 301 323 283 302 292 316 343 341 25 110 230 230 187 283 347 325 340 350 352 354 355 357 358 355 356 358 1 359 354 356 5 99 141 143 156 165 156 158 169 168 170 178 172
332 325 338 358 4 3 34 60 16 358 301 242 190 164 230 348 1 352 345 346 352 356 359 1 1 1 0 358 358 351 355 0 342 198 177 187 192 175 176 182 179 177 181 185
342 306 329 357 6 277 267 140 162 216 233 283 314 198 193 4 2 3 2 2 3 1 359 358 358 357 354 355 354 346 345 345 338 301 247 226 209 194 192 193 187 188 192 190
288 278 315 333 349 94 14 206 186 168 247 257 249 284 306 357 5 6 2 4 1 357 356 355 355 356 358 353 348 344 328 333 324 308 282 251 235 213 199 199 196 194 191 182
184 273 297 315 3 18 108 144 85 130 210 250 260 242 274 337 343 352 356 353 351 354 353 353 353 353 353 348 343 347 341 328 310 307 285 264 248 234 214 194 195 201 199 186
103 229 306 347 5 313 19 41 84 176 200 208 255 267 262 249 332 340 340 343 344 347 347 348 348 348 348 350 353 350 347 343 334 316 294 278 246 235 216 209 198 194 194 187
0 126 275 273 291 310 134 140 134 175 265 215 216 261 317 343 349 349 343 343 343 346 346 349 347 349 352 351 349 349 344 339 326 309 286 271 248 222 214 217 211 200 194 192
105 94 349 337 338 7 21 355 259 169 172 210 210 257 342 359 357 355 349 344 346 350 351 352 352 350 348 345 343 341 339 333 324 316 297 275 256 228 221 222 214 206 196 190
93 123 177 216 253 282 303 311 305 155 198 242 231 256 311 345 349 347 346 344 345 350 352 350 348 345 341 340 337 334 332 327 324 318 301 274 257 242 224 221 216 209 196 188
78 176 231 257 277 266 288 305 306 214 227 227 256 262 294 325 330 330 337 345 350 351 351 349 344 339 339 338 336 330 327 326 323 318 307 290 273 261 234 216 214 208 200 189
73 166 275 289 293 17 347 337 328 293 277 271 297 294 316 322 336 342 344 347 347 344 343 341 340 337 334 332 330 328 323 322 318 311 308 300 286 266 244 219 203 198 198 184
111 137 62 278 317 352 335 323 358 320 303 257 272 284 319 335 340 334 332 340 340 338 335 332 330 327 324 322 322 322 320 320 315 306 311 302 293 268 253 235 206 195 189 179
162 151 164 282 14 304 253 267 128 333 337 349 316 320 327 316 313 314 325 342 338 334 329 326 326 322 321 320 320 319 322 326 322 313 309 301 290 280 257 230 215 197 184 179
154 154 150 142 266 273 292 330 348 291 307 360 338 327 329 328 325 322 340 348 333 326 320 318 317 318 322 324 323 323 325 328 327 319 310 304 292 276 260 236 219 197 182 182
56 86 132 146 189 247 267 303 309 186 289 341 346 330 331 345 345 317 331 334 330 330 329 327 326 326 328 328 327 326 326 327 323 318 313 307 300 276 261 243 221 199 183 180
15 27 144 186 219 263 282 303 339 149 275 320 331 327 333 329 288 299 320 330 331 332 331 333 332 332 329 328 328 326 325 320 316 319 320 316 312 295 271 242 214 187 180 167
185 179 206 166 207 264 307 35 134 227 290 319 326 330 325 313 312 320 327 330 333 334 336 336 336 335 334 335 334 329 325 321 322 324 324 323 323 318 310 245 215 186 172 167
199 195 189 193 214 247 217 172 199 207 303 310 316 317 318 317 320 325 327 328 330 332 334 336 337 336 340 342 339 331 325 326 327 331 329 327 328 329 325 276 209 185 174 172
290 290 180 245 263 279 282 346 352 337 309 307 314 318 321 314 315 320 322 327 331 333 335 338 342 342 341 342 340 334 330 328 331 333 330 327 329 334 347 3 24 165 171 168
254 201 210 260 288 319 312 309 314 321 325 329 328 323 318 315 316 317 318 322 326 330 334 339 341 340 336 337 338 336 334 332 334 335 333 332 336 347 5 17 21 26 53 174
217 181 189 235 240 225 264 285 306 312 317 319 320 321 322 318 313 316 316 318 322 328 333 337 339 338 337 338 336 337 338 339 341 338 338 341 347 358 18 31 30 33 39 44
Height
1502 1506 1507 1505 1504 1503 1503 1504 1504 1500 1496 1497 1497 1498 1497 1496 1495 1496 1496 1496 1495 1495 1495 1495 1495 1495 1495 1495 1496 1497 1498 1500 1501 1503 1505 1507 1509 1512 1515 1518 1520 1522 1525 1527
1506 1508 1504 1503 1502 1502 1502 1503 1503 1499 1496 1496 1497 1498 1498 1497 1497 1497 1497 1496 1495 1494 1493 1493 1492 1492 1492 1492 1493 1494 1495 1497 1499 1500 1502 1505 1507 1509 1512 1514 1517 1520 1522 1525
1508 1506 1502 1502 1502 1502 1503 1504 1502 1501 1497 1496 1498 1500 1499 1498 1498 1498 1498 1497 1496 1495 1492 1491 1490 1490 1490 1490 1491 1492 1493 1494 1496 1498 1500 1502 1505 1507 1509 1511 1514 1516 1519 1522
1507 1505 1503 1502 1502 1503 1503 1500 1499 1498 1502 1504 1500 1506 1502 1500 1499 1499 1498 1497 1496 1495 1493 1491 1489 1488 1489 1489 1490 1490 1491 1492 1494 1495 1496 1498 1500 1502 1505 1508 1510 1513 1516 1519
1509 1505 1504 1503 1503 1502 1502 1498 1498 1498 1501 1505 1503 1507 1507 1503 1503 1502 1501 1499 1497 1495 1493 1490 1489 1488 1488 1488 1488 1488 1489 1489 1491 1492 1494 1495 1497 1500 1502 1505 1508 1511 1513 1516
1508 1505 1505 1504 1501 1501 1500 1499 1498 1500 1502 1508 1505 1507 1509 1508 1506 1504 1502 1500 1497 1495 1492 1490 1488 1487 1486 1486 1486 1486 1487 1487 1488 1490 1491 1493 1495 1497 1499 1501 1504 1507 1510 1512
1511 1507 1505 1503 1503 1502 1503 1508 1511 1510 1512 1507 1502 1505 1511 1509 1506 1504 1502 1500 1497 1495 1492 1489 1487 1485 1484 1484 1484 1485 1485 1485 1486 1488 1489 1491 1493 1494 1495 1497 1500 1502 1505 1508
1521 1516 1509 1507 1506 1507 1506 1509 1515 1516 1514 1510 1505 1508 1512 1509 1506 1504 1502 1500 1498 1495 1492 1489 1487 1485 1484 1483 1483 1483 1483 1483 1484 1485 1486 1488 1489 1490 1492 1494 1496 1499 1502 1505
1524 1517 1509 1507 1506 1506 1507 1510 1511 1516 1515 1515 1511 1513 1510 1507 1505 1503 1501 1499 1497 1495 1492 1489 1486 1484 1482 1482 1481 1481 1481 1481 1481 1482 1483 1485 1486 1487 1489 1491 1494 1496 1499 1502
1523 1522 1513 1510 1507 1507 1508 1510 1515 1517 1516 1512 1511 1514 1514 1511 1507 1504 1502 1499 1497 1494 1492 1489 1486 1483 1482 1482 1480 1479 1479 1479 1479 1480 1480 1481 1483 1485 1487 1489 1491 1493 1496 1498
1523 1525 1519 1514 1513 1513 1512 1513 1514 1517 1516 1515 1513 1516 1511 1510 1507 1505 1503 1500 1497 1494 1492 1489 1486 1484 1482 1480 1478 1477 1476 1476 1476 1477 1478 1478 1480 1481 1483 1485 1487 1490 1493 1495
1523 1526 1525 1519 1514 1512 1512 1514 1517 1519 1520 1518 1517 1519 1510 1509 1507 1505 1503 1500 1497 1494 1492 1488 1486 1483 1480 1478 1477 1475 1475 1474 1474 1474 1475 1475 1475 1478 1479 1481 1483 1486 1489 1491
1522 1528 1530 1523 1520 1517 1516 1516 1516 1518 1519 1519 1519 1518 1509 1508 1506 1505 1503 1500 1497 1494 1490 1487 1484 1481 1479 1477 1475 1474 1473 1471 1471 1471 1472 1472 1472 1474 1475 1477 1479 1482 1484 1487
1521 1527 1531 1529 1522 1521 1521 1518 1516 1517 1521 1519 1516 1514 1511 1509 1507 1505 1503 1500 1497 1494 1491 1487 1484 1481 1479 1476 1474 1471 1470 1469 1469 1468 1468 1468 1469 1470 1471 1473 1475 1477 1480 1483
1522 1528 1528 1525 1522 1520 1520 1519 1516 1517 1517 1518 1515 1514 1512 1511 1509 1507 1503 1500 1497 1493 1490 1487 1484 1480 1477 1474 1471 1470 1468 1467 1466 1465 1465 1465 1466 1467 1468 1470 1472 1474 1476 1479
1524 1528 1527 1525 1519 1519 1519 1518 1517 1517 1517 1517 1515 1515 1513 1511 1509 1506 1503 1500 1497 1493 1490 1486 1482 1479 1476 1473 1470 1468 1466 1465 1464 1463 1462 1462 1463 1464 1465 1467 1468 1471 1473 1476
1526 1528 1528 1527 1523 1521 1524 1523 1521 1520 1519 1518 1518 1517 1513 1511 1508 1506 1503 1500 1497 1493 1489 1486 1482 1479 1476 1472 1469 1466 1464 1462 1462 1460 1459 1459 1459 1460 1462 1463 1465 1467 1470 1472
1526 1527 1530 1529 1530 1532 1527 1522 1521 1521 1520 1519 1517 1516 1513 1511 1508 1505 1503 1500 1496 1492 1488 1484 1480 1476 1473 1470 1467 1464 1462 1460 1459 1457 1456 1456 1456 1457 1458 1460 1462 1464 1466 1469
1522 1525 1529 1531 1534 1530 1524 1522 1522 1522 1521 1520 1518 1515 1512 1509 1505 1503 1501 1499 1496 1492 1488 1484 1479 1474 1470 1467 1464 1461 1459 1457 1455 1454 1453 1453 1453 1453 1455 1456 1457 1459 1462 1465
1524 1525 1529 1532 1532 1530 1526 1522 1520 1522 1522 1520 1518 1515 1512 1509 1508 1505 1500 1497 1493 1489 1485 1481 1476 1471 1467 1464 1461 1458 1455 1454 1452 1451 1450 1450 1450 1450 1451 1452 1454 1456 1459 1461
1529 1531 1533 1534 1534 1530 1525 1521 1519 1526 1524 1520 1517 1515 1513 1511 1509 1505 1500 1495 1492 1487 1483 1479 1474 1469 1465 1461 1458 1455 1453 1451 1449 1448 1447 1447 1446 1447 1448 1449 1451 1453 1455 1458
1532 1534 1535 1535 1536 1533 1523 1521 1523 1524 1520 1518 1516 1514 1512 1509 1506 1502 1498 1494 1490 1485 1481 1476 1471 1467 1462 1459 1456 1453 1451 1449 1447 1446 1444 1444 1444 1444 1445 1446 1448 1450 1452 1454
1531 1530 1530 1531 1530 1524 1522 1521 1521 1520 1519 1517 1515 1513 1511 1507 1504 1500 1496 1492 1488 1484 1479 1475 1470 1465 1461 1458 1455 1451 1449 1447 1445 1444 1442 1442 1442 1442 1443 1444 1445 1446 1449 1451
1528 1527 1527 1527 1523 1522 1521 1520 1520 1519 1518 1516 1514 1512 1509 1506 1502 1499 1495 1491 1487 1482 1478 1473 1469 1464 1460 1457 1454 1451 1448 1446 1444 1442 1441 1440 1440 1440 1441 1441 1442 1444 1446 1447
1527 1526 1526 1525 1522 1521 1519 1519 1518 1517 1515 1514 1512 1509 1507 1503 1500 1497 1493 1489 1485 1481 1477 1473 1468 1464 1460 1457 1454 1450 1447 1445 1442 1440 1440 1439 1439 1438 1439 1440 1441 1442 1444 1446
1524 1525 1526 1524 1520 1520 1518 1517 1516 1515 1513 1511 1509 1506 1504 1502 1498 1495 1491 1488 1484 1480 1476 1471 1468 1464 1460 1457 1453 1450 1447 1444 1442 1440 1439 1439 1438 1438 1438 1439 1440 1442 1443 1445